FW3849 Weather Reports


time (UTC)temp
C
wind
direction
speed
KPH
gust
KPH
rain 1hr
cm
rain 24hr
cm
rain mn
cm
humidity
%
barometer
mb
20260509150501 22 154 6.4 14.5 0.00 0.00 0.00 57 1011.9
20260509150005 22 168 8.0 14.5 0.00 0.00 0.00 57 1012.0
20260509145600 22 127 6.4 17.7 0.00 0.00 0.00 58 1012.0
20260509145103 22 218 8.0 17.7 0.00 0.00 0.00 58 1012.2
20260509144558 21 176 9.7 16.1 0.00 0.00 0.00 57 1012.2
20260509144057 21 154 9.7 17.7 0.00 0.00 0.00 58 1012.1
20260509143558 21 206 9.7 19.3 0.00 0.00 0.00 58 1012.2
20260509143057 21 134 8.0 19.3 0.00 0.00 0.00 58 1012.4
20260509142555 21 179 12.9 19.3 0.00 0.00 0.00 58 1012.3
20260509142057 21 205 8.0 16.1 0.00 0.00 0.00 59 1012.3
20260509141553 20 202 11.3 16.1 0.00 0.00 0.00 60 1012.3
20260509140553 20 164 8.0 16.1 0.00 0.00 0.00 60 1012.3
20260509135551 19 187 8.0 14.5 0.00 0.00 0.00 63 1012.2
20260509135050 19 147 8.0 16.1 0.00 0.00 0.00 64 1012.1
20260509134623 18 178 8.0 17.7 0.00 0.00 0.00 65 1012.1
20260509134051 18 183 8.0 17.7 0.00 0.00 0.00 67 1012.0
20260509133546 18 181 6.4 16.1 0.00 0.00 0.00 68 1012.1
20260509133047 17 198 8.0 14.5 0.00 0.00 0.00 68 1012.1
20260509132544 17 181 9.7 14.5 0.00 0.00 0.00 68 1012.2
20260509132043 17 154 6.4 14.5 0.00 0.00 0.00 68 1012.3
20260509131549 17 187 4.8 12.9 0.00 0.00 0.00 68 1012.4
20260509130540 17 193 3.2 8.0 0.00 0.00 0.00 68 1012.3
20260509130041 17 117 1.6 4.8 0.00 0.00 0.00 68 1012.2
20260509125539 16 37 0.0 4.8 0.00 0.00 0.00 68 1012.3
20260509125039 16 22 0.0 3.2 0.00 0.00 0.00 69 1012.3
20260509124539 16 20 0.0 4.8 0.00 0.00 0.00 69 1012.3
20260509124040 16 20 1.6 4.8 0.00 0.00 0.00 69 1012.3
20260509123538 16 20 3.2 4.8 0.00 0.00 0.00 69 1012.4
20260509123038 15 350 0.0 3.2 0.00 0.00 0.00 67 1012.2
20260509122537 16 350 0.0 3.2 0.00 0.00 0.00 67 1012.1
20260509122036 16 350 1.6 3.2 0.00 0.00 0.00 67 1012.2
20260509121535 16 350 1.6 3.2 0.00 0.00 0.00 67 1012.1
20260509120541 16 351 0.0 3.2 0.00 0.00 0.00 66 1011.8
20260509120043 16 351 0.0 3.2 0.00 0.00 0.00 66 1011.7
20260509115539 16 351 0.0 1.6 0.00 0.00 0.00 66 1011.6
20260509115039 16 351 0.0 1.6 0.00 0.00 0.00 66 1011.5
20260509114543 16 351 0.0 1.6 0.00 0.00 0.00 66 1011.4
20260509114038 16 351 0.0 3.2 0.00 0.00 0.00 65 1011.5
20260509113541 16 351 0.0 4.8 0.00 0.00 0.00 65 1011.6
20260509113039 16 351 1.6 4.8 0.00 0.00 0.00 65 1011.4
20260509112536 16 351 0.0 3.2 0.00 0.00 0.00 66 1011.4
20260509112036 16 351 0.0 3.2 0.00 0.00 0.00 66 1011.5
20260509111535 16 351 0.0 4.8 0.00 0.00 0.00 65 1011.3
20260509110528 16 351 0.0 4.8 0.00 0.00 0.00 65 1011.5
20260509110029 16 351 1.6 4.8 0.00 0.00 0.00 65 1011.6
20260509105529 16 351 1.6 4.8 0.00 0.00 0.00 65 1011.6
20260509105031 16 351 1.6 4.8 0.00 0.00 0.00 65 1011.7
20260509104527 17 351 1.6 3.2 0.00 0.00 0.00 65 1011.5
20260509104026 17 351 0.0 3.2 0.00 0.00 0.00 65 1011.4
20260509103525 17 351 0.0 3.2 0.00 0.00 0.00 65 1011.4
20260509103025 17 351 0.0 6.4 0.00 0.00 0.00 65 1011.4
20260509102523 17 351 1.6 6.4 0.00 0.00 0.00 64 1011.5
20260509102027 17 289 3.2 6.4 0.00 0.00 0.00 64 1011.5
20260509101534 17 216 0.0 0.0 0.00 0.00 0.00 64 1011.3
20260509100523 17 215 0.0 3.2 0.00 0.00 0.00 64 1011.5
20260509100025 17 215 0.0 3.2 0.00 0.00 0.00 64 1011.5
20260509095523 17 215 0.0 1.6 0.00 0.00 0.00 64 1011.4
20260509095023 17 215 0.0 4.8 0.00 0.00 0.00 64 1011.5
20260509094523 17 215 0.0 4.8 0.00 0.00 0.00 64 1011.3
20260509094022 17 215 1.6 4.8 0.00 0.00 0.00 63 1011.2
20260509093523 18 216 1.6 6.4 0.00 0.00 0.00 63 1011.1
20260509093023 18 216 3.2 6.4 0.00 0.00 0.00 64 1011.1
20260509092522 18 227 3.2 6.4 0.00 0.00 0.00 64 1011.1
20260509092026 18 103 0.0 4.8 0.00 0.00 0.00 64 1011.3
20260509091523 17 103 4.8 8.0 0.00 0.00 0.00 64 1011.2
20260509090523 17 64 3.2 6.4 0.00 0.00 0.00 64 1011.1
20260509090022 17 100 0.0 3.2 0.00 0.00 0.00 64 1010.8
20260509085522 18 100 1.6 3.2 0.00 0.00 0.00 64 1010.6
20260509085021 18 100 0.0 3.2 0.00 0.00 0.00 64 1010.6
20260509084522 18 100 0.0 4.8 0.00 0.00 0.00 64 1010.6
20260509084021 18 101 1.6 4.8 0.00 0.00 0.00 64 1010.6
20260509083522 18 97 1.6 6.4 0.00 0.00 0.00 64 1010.6
20260509083021 18 207 0.0 6.4 0.00 0.00 0.00 64 1010.5
20260509082522 18 200 3.2 4.8 0.00 0.00 0.00 64 1010.4
20260509082020 18 57 0.0 6.4 0.00 0.00 0.00 64 1010.6
20260509081521 18 57 3.2 6.4 0.00 0.00 0.00 64 1010.7
20260509080522 18 66 0.0 3.2 0.00 0.00 0.00 63 1010.6
20260509080023 18 66 0.0 3.2 0.00 0.00 0.00 63 1010.6
20260509075522 18 64 1.6 3.2 0.00 0.00 0.00 62 1010.6
20260509075022 19 63 0.0 1.6 0.00 0.00 0.00 63 1010.7
20260509074522 19 63 0.0 3.2 0.00 0.00 0.00 62 1010.7
20260509074021 19 63 0.0 4.8 0.00 0.00 0.00 62 1010.8
20260509073523 19 63 1.6 4.8 0.00 0.00 0.00 62 1010.9
20260509073021 19 63 3.2 4.8 0.00 0.00 0.00 62 1010.8
20260509072521 19 62 1.6 4.8 0.00 0.00 0.00 62 1010.8
20260509072023 19 62 0.0 4.8 0.00 0.00 0.00 62 1010.9
20260509071520 19 62 0.0 8.0 0.00 0.00 0.00 62 1010.9
20260509070526 19 62 0.0 8.0 0.00 0.00 0.00 62 1010.8
20260509070022 19 62 4.8 8.0 0.00 0.00 0.00 61 1010.7
20260509065521 19 48 1.6 4.8 0.00 0.00 0.00 60 1010.7
20260509065021 20 61 1.6 4.8 0.00 0.00 0.00 60 1010.5
20260509064521 20 147 1.6 6.4 0.00 0.00 0.00 59 1010.4
20260509064022 20 162 1.6 9.7 0.00 0.00 0.00 59 1010.4
20260509063524 20 177 3.2 9.7 0.00 0.00 0.00 60 1010.4
20260509063021 20 193 1.6 6.4 0.00 0.00 0.00 60 1010.3
20260509062521 20 227 1.6 8.0 0.00 0.00 0.00 59 1010.3
20260509062021 20 122 4.8 8.0 0.00 0.00 0.00 59 1010.3
20260509061521 21 92 3.2 12.9 0.00 0.00 0.00 57 1010.3
20260509061124 21 92 3.2 12.9 0.00 0.00 0.00 57 1010.2
20260509060518 21 104 3.2 12.9 0.00 0.00 0.00 57 1010.3
20260509060018 21 206 6.4 12.9 0.00 0.00 0.00 57 1010.3
20260509055518 21 185 3.2 8.0 0.00 0.00 0.00 57 1010.4
20260509055018 21 180 4.8 9.7 0.00 0.00 0.00 57 1010.4
20260509054517 21 174 3.2 9.7 0.00 0.00 0.00 57 1010.4
20260509054017 21 169 4.8 12.9 0.00 0.00 0.00 56 1010.5
20260509053517 21 166 4.8 17.7 0.00 0.00 0.00 56 1010.4
20260509053016 21 158 9.7 20.9 0.00 0.00 0.00 56 1010.3
20260509052516 21 167 12.9 20.9 0.00 0.00 0.00 55 1010.4
20260509052017 21 229 8.0 17.7 0.00 0.00 0.00 55 1010.5
20260509051518 22 198 11.3 19.3 0.00 0.00 0.00 53 1010.4
20260509051117 22 198 11.3 19.3 0.00 0.00 0.00 53 1010.5
20260509050520 22 181 8.0 19.3 0.00 0.00 0.00 53 1010.5
20260509050017 22 218 9.7 16.1 0.00 0.00 0.00 53 1010.6
20260509045520 22 212 8.0 17.7 0.00 0.00 0.00 53 1010.6
20260509045016 22 196 8.0 16.1 0.00 0.00 0.00 53 1010.5
20260509044516 22 191 6.4 16.1 0.00 0.00 0.00 53 1010.6
20260509044016 22 191 6.4 16.1 0.00 0.00 0.00 53 1010.6
20260509043519 22 190 8.0 16.1 0.00 0.00 0.00 53 1010.5
20260509043015 22 224 11.3 16.1 0.00 0.00 0.00 54 1010.6
20260509042515 22 221 9.7 16.1 0.00 0.00 0.00 54 1010.6
20260509042017 22 215 9.7 16.1 0.00 0.00 0.00 54 1010.6
20260509041515 22 207 6.4 9.7 0.00 0.00 0.00 55 1010.6
20260509040514 21 185 6.4 11.3 0.00 0.00 0.00 55 1010.7
20260509040014 21 201 3.2 8.0 0.00 0.00 0.00 56 1010.6
20260509035518 21 199 4.8 8.0 0.00 0.00 0.00 56 1010.5
20260509035016 21 220 3.2 6.4 0.00 0.00 0.00 55 1010.5
20260509034535 21 220 1.6 6.4 0.00 0.00 0.00 55 1010.6
20260509034015 21 220 3.2 9.7 0.00 0.00 0.00 55 1010.4
20260509033513 21 222 3.2 11.3 0.00 0.00 0.00 55 1010.2
20260509033014 21 197 8.0 11.3 0.00 0.00 0.00 54 1010.1
20260509032514 21 177 4.8 9.7 0.00 0.00 0.00 54 1009.9
20260509032017 22 117 3.2 11.3 0.00 0.00 0.00 54 1009.7
20260509031513 22 193 1.6 4.8 0.00 0.00 0.00 52 1009.9
20260509030513 22 46 1.6 3.2 0.00 0.00 0.00 52 1009.6
20260509030015 22 46 0.0 3.2 0.00 0.00 0.00 52 1009.5
20260509025514 22 46 0.0 4.8 0.00 0.00 0.00 52 1009.5
20260509025012 22 46 0.0 4.8 0.00 0.00 0.00 51 1009.4
20260509024513 22 46 1.6 4.8 0.00 0.00 0.00 51 1009.5
20260509024013 23 47 1.6 4.8 0.00 0.00 0.00 50 1009.6
20260509023511 23 47 0.0 1.6 0.00 0.00 0.00 50 1009.6
20260509023012 23 47 0.0 8.0 0.00 0.00 0.00 50 1009.6
20260509022512 23 47 1.6 8.0 0.00 0.00 0.00 50 1009.7
20260509022012 23 65 3.2 6.4 0.00 0.00 0.00 49 1009.7
20260509021512 23 71 3.2 6.4 0.00 0.00 0.00 49 1009.9
20260509020516 24 135 3.2 14.5 0.00 0.00 0.00 47 1009.7
20260509020012 24 187 6.4 14.5 0.00 0.00 0.00 47 1009.8
20260509015512 24 190 4.8 6.4 0.00 0.00 0.00 47 1009.8
20260509015011 24 182 3.2 6.4 0.00 0.00 0.00 47 1009.7
20260509014511 25 190 3.2 6.4 0.00 0.00 0.00 46 1009.8
20260509014012 25 181 1.6 9.7 0.00 0.00 0.00 46 1009.7
20260509013515 25 180 3.2 12.9 0.00 0.00 0.00 46 1009.8
20260509013012 25 191 4.8 12.9 0.00 0.00 0.00 45 1009.7
20260509012510 25 211 4.8 12.9 0.00 0.00 0.00 45 1009.5
20260509012010 25 201 6.4 11.3 0.00 0.00 0.00 45 1009.4
20260509011511 25 207 4.8 14.5 0.00 0.00 0.00 45 1009.3
20260509011112 25 193 8.0 14.5 0.00 0.00 0.00 44 1009.3
20260509010509 25 208 8.0 14.5 0.00 0.00 0.00 44 1009.2
20260509010010 25 195 6.4 14.5 0.00 0.00 0.00 44 1009.0
20260509005509 26 195 4.8 14.5 0.00 0.00 0.00 43 1008.9
20260509005010 26 191 6.4 12.9 0.00 0.00 0.00 42 1008.8
20260509004509 26 202 4.8 9.7 0.00 0.00 0.00 42 1008.7
20260509004009 26 192 3.2 8.0 0.00 0.00 0.00 42 1008.7
20260509003509 26 175 3.2 8.0 0.00 0.00 0.00 41 1008.7
20260509003010 26 234 1.6 4.8 0.00 0.00 0.00 41 1008.8
20260509002511 26 234 1.6 4.8 0.00 0.00 0.00 41 1008.8
20260509002008 26 234 1.6 3.2 0.00 0.00 0.00 41 1008.8
20260509001508 26 235 1.6 3.2 0.00 0.00 0.00 41 1009.1
20260509000511 26 234 1.6 9.7 0.00 0.00 0.00 41 1009.1
20260509000011 26 234 3.2 9.7 0.00 0.00 0.00 41 1009.1
20260508235511 26 210 4.8 9.7 0.00 0.00 0.00 40 1008.9
20260508235011 26 220 3.2 6.4 0.00 0.00 0.00 40 1008.8
20260508234511 26 208 3.2 6.4 0.00 0.00 0.00 40 1008.6
20260508234011 26 207 3.2 6.4 0.00 0.00 0.00 40 1008.5
20260508233510 26 195 3.2 6.4 0.00 0.00 0.00 39 1008.4
20260508233010 26 166 1.6 6.4 0.00 0.00 0.00 40 1008.4
20260508232510 26 160 1.6 6.4 0.00 0.00 0.00 39 1008.4
20260508232012 26 164 3.2 6.4 0.00 0.00 0.00 39 1008.4
20260508231510 26 187 1.6 6.4 0.00 0.00 0.00 39 1008.4
20260508230510 26 193 3.2 8.0 0.00 0.00 0.00 39 1008.1
20260508230006 26 189 3.2 8.0 0.00 0.00 0.00 39 1008.2
20260508225509 26 177 3.2 6.4 0.00 0.00 0.00 39 1008.1
20260508225006 26 211 0.0 3.2 0.00 0.00 0.00 39 1008.1
20260508224510 26 176 0.0 4.8 0.00 0.00 0.00 39 1008.1
20260508224009 26 177 3.2 6.4 0.00 0.00 0.00 38 1007.9
20260508223504 26 181 3.2 6.4 0.00 0.00 0.00 39 1008.0
20260508223004 26 152 3.2 6.4 0.00 0.00 0.00 39 1008.0
20260508222503 26 144 3.2 6.4 0.00 0.00 0.00 39 1008.0
20260508222002 27 142 3.2 8.0 0.00 0.00 0.00 39 1008.2
20260508221505 26 203 1.6 6.4 0.00 0.00 0.00 39 1008.3
20260508220600 26 273 1.6 8.0 0.00 0.00 0.00 39 1008.5
20260508220501 26 273 0.0 8.0 0.00 0.00 0.00 39 1008.5
20260508215600 26 203 4.8 12.9 0.00 0.00 0.00 39 1008.6
20260508215059 26 39 1.6 9.7 0.00 0.00 0.00 40 1008.6
20260508214608 26 48 3.2 9.7 0.00 0.00 0.00 41 1008.6
20260508214057 26 189 3.2 9.7 0.00 0.00 0.00 41 1008.8
20260508213556 26 49 6.4 9.7 0.00 0.00 0.00 41 1008.8
20260508213055 26 150 1.6 8.0 0.00 0.00 0.00 43 1008.8
20260508212555 25 285 3.2 9.7 0.00 0.00 0.00 44 1008.7
20260508212055 25 218 4.8 9.7 0.00 0.00 0.00 44 1008.9
20260508211555 25 256 4.8 11.3 0.00 0.00 0.00 44 1009.0
20260508211153 25 251 4.8 12.9 0.00 0.00 0.00 44 1009.1
20260508210557 25 251 4.8 12.9 0.00 0.00 0.00 44 1009.1
20260508210055 26 224 8.0 12.9 0.00 0.00 0.00 43 1009.3
20260508205552 25 153 1.6 9.7 0.00 0.00 0.00 46 1009.3
20260508205050 25 238 3.2 9.7 0.00 0.00 0.00 47 1009.4
20260508204551 25 185 4.8 12.9 0.00 0.00 0.00 47 1009.4
20260508204048 25 99 3.2 11.3 0.00 0.00 0.00 48 1009.4
20260508203554 24 143 0.0 16.1 0.00 0.00 0.00 48 1009.6
20260508203047 24 139 6.4 16.1 0.00 0.00 0.00 48 1009.8
20260508202546 24 156 4.8 9.7 0.00 0.00 0.00 48 1009.8
20260508202044 23 35 3.2 8.0 0.00 0.00 0.00 49 1010.1
20260508201544 23 258 4.8 9.7 0.00 0.00 0.00 51 1010.1
20260508201144 23 127 4.8 11.3 0.00 0.00 0.00 51 1010.2
20260508200542 23 202 3.2 11.3 0.00 0.00 0.00 51 1010.3
20260508200044 23 195 4.8 14.5 0.00 0.00 0.00 51 1010.4
20260508195541 23 39 6.4 14.5 0.00 0.00 0.00 51 1010.5
20260508195039 23 60 8.0 12.9 0.00 0.00 0.00 52 1010.6
20260508194539 22 117 4.8 9.7 0.00 0.00 0.00 52 1010.6
20260508194038 22 193 3.2 9.7 0.00 0.00 0.00 53 1010.8
20260508193537 22 204 4.8 9.7 0.00 0.00 0.00 52 1010.8
20260508193045 22 158 6.4 9.7 0.00 0.00 0.00 53 1010.9
20260508192535 22 144 1.6 8.0 0.00 0.00 0.00 54 1010.9
20260508192038 22 90 1.6 9.7 0.00 0.00 0.00 54 1011.0
20260508191545 21 85 3.2 8.0 0.00 0.00 0.00 56 1011.1
20260508191132 21 85 3.2 8.0 0.00 0.00 0.00 56 1011.3
20260508190535 21 101 4.8 9.7 0.00 0.00 0.00 56 1011.3
20260508190049 21 234 1.6 12.9 0.00 0.00 0.00 56 1011.4
20260508185536 21 127 3.2 9.7 0.00 0.00 0.00 56 1011.4
20260508185031 21 208 3.2 9.7 0.00 0.00 0.00 57 1011.5
20260508184534 20 192 4.8 11.3 0.00 0.00 0.00 57 1011.6
20260508184031 20 159 3.2 8.0 0.00 0.00 0.00 57 1011.8
20260508183527 20 154 1.6 8.0 0.00 0.00 0.00 58 1011.9
20260508183035 20 178 4.8 14.5 0.00 0.00 0.00 59 1012.1
20260508182524 19 162 6.4 14.5 0.00 0.00 0.00 59 1012.1
20260508182024 19 199 4.8 9.7 0.00 0.00 0.00 59 1012.1
20260508181524 19 191 4.8 9.7 0.00 0.00 0.00 59 1012.2
20260508181124 18 160 4.8 16.1 0.00 0.00 0.00 60 1012.2
20260508180521 18 175 4.8 16.1 0.00 0.00 0.00 60 1012.4
20260508180020 18 159 6.4 16.1 0.00 0.00 0.00 60 1012.6
20260508175518 18 213 4.8 14.5 0.00 0.00 0.00 60 1012.7
20260508175018 18 237 3.2 8.0 0.00 0.00 0.00 60 1012.7
20260508174518 18 212 4.8 12.9 0.00 0.00 0.00 60 1012.7
20260508174017 18 243 6.4 16.1 0.00 0.00 0.00 60 1012.9
20260508173517 18 227 9.7 16.1 0.00 0.00 0.00 60 1013.0
20260508173016 18 209 6.4 14.5 0.00 0.00 0.00 60 1012.9
20260508172517 18 254 6.4 12.9 0.00 0.00 0.00 60 1013.0
20260508172014 18 198 4.8 11.3 0.00 0.00 0.00 61 1013.1
20260508171517 18 275 6.4 11.3 0.00 0.00 0.00 62 1013.1
20260508171114 17 231 3.2 8.0 0.00 0.00 0.00 62 1013.2
20260508170513 17 232 3.2 8.0 0.00 0.00 0.00 62 1013.1
20260508170013 17 199 4.8 11.3 0.00 0.00 0.00 62 1013.1
20260508165512 17 215 4.8 11.3 0.00 0.00 0.00 62 1013.1
20260508165015 17 185 4.8 9.7 0.00 0.00 0.00 62 1013.1
20260508164521 17 154 4.8 12.9 0.00 0.00 0.00 62 1013.1
20260508164011 17 179 4.8 12.9 0.00 0.00 0.00 63 1013.2
20260508163509 17 197 4.8 12.9 0.00 0.00 0.00 63 1013.2
20260508163014 17 195 4.8 9.7 0.00 0.00 0.00 63 1013.3
20260508162509 17 218 3.2 14.5 0.00 0.00 0.00 63 1013.3
20260508162008 17 196 8.0 14.5 0.00 0.00 0.00 63 1013.3
20260508161510 17 187 6.4 14.5 0.00 0.00 0.00 63 1013.4
20260508161108 17 208 8.0 14.5 0.00 0.00 0.00 63 1013.5
20260508160511 17 203 6.4 14.5 0.00 0.00 0.00 63 1013.3
20260508160011 17 206 8.0 17.7 0.00 0.00 0.00 63 1013.5
20260508155512 17 176 11.3 17.7 0.00 0.00 0.00 63 1013.3
20260508155010 17 192 9.7 17.7 0.00 0.00 0.00 63 1013.4
20260508154510 17 204 12.9 17.7 0.00 0.00 0.00 63 1013.3
20260508154010 17 196 8.0 20.9 0.00 0.00 0.00 63 1013.4
20260508153509 17 202 12.9 20.9 0.00 0.00 0.00 63 1013.5
20260508153019 17 185 8.0 17.7 0.00 0.00 0.00 63 1013.4
20260508152514 17 202 9.7 17.7 0.00 0.00 0.00 63 1013.4
20260508152013 17 201 8.0 16.1 0.00 0.00 0.00 64 1013.4
20260508151508 17 187 6.4 16.1 0.00 0.00 0.00 64 1013.5